User: anonymous   Login
Location: Clanezzo
(45.7500°N, 9.6000°E)
Time: 13:24:55
(UTC+00:00)
Language:

Cosmos 1602 - Orbit

View from above orbital plane
View from above orbital plane
View from above satellite
View from above satellite

Ground track
Ground track

The orbit data is extracted from the following two-line orbital elements,

1 15331U 84105A   21211.64685367  .00000668  00000-0  34551-4 0  9995
2 15331  82.5378 289.2275 0015884 124.9239 235.3488 15.14424898  9153
Epoch (UTC): 30 July 2021 15:31:28
Eccentricity: 0.0015884
inclination: 82.5378°
perigee height: 512 km
apogee height: 533 km
right ascension of ascending node: 289.2275°
argument of perigee: 124.9239°
revolutions per day: 15.14424898
mean anomaly at epoch: 235.3488°
orbit number at epoch: 915

The dashed part of the orbit path shows where the satellite is in the earth's shadow,  

DLR